Theta_e
296 297 298 298 298 298 298 297 297 298 298 298 297 298 297 297 297 296 293 298 291 285 286 289 289 286 287 286 281 285 283 285 283 279 280 281 280 282 282 284 283 282 280 280 281 278 275 292 291 285 291 295 295 296
296 297 297 297 298 297 297 297 297 296 298 297 297 298 297 297 296 295 290 295 296 288 287 293 293 294 292 291 288 288 285 285 286 280 283 284 281 283 282 279 288 281 286 283 284 284 292 294 293 296 296 295 295 296
296 296 296 296 296 296 296 297 296 297 297 296 297 297 296 296 296 295 292 294 294 288 288 289 288 293 296 295 294 282 286 288 286 290 286 284 280 286 280 282 284 288 292 286 287 290 291 294 296 297 296 296 297 298
295 295 296 296 295 296 296 297 296 296 296 296 297 296 295 295 295 295 292 294 293 288 281 285 294 292 297 298 296 293 290 291 291 290 285 284 282 288 284 285 285 288 290 288 287 291 293 294 295 296 296 298 298 298
294 294 295 295 295 296 295 295 295 295 295 296 297 296 296 295 294 294 294 294 295 287 282 285 290 292 294 294 295 297 294 291 289 285 284 282 287 287 288 288 285 289 287 286 285 292 292 293 296 298 296 296 297 297
294 294 294 295 295 294 294 294 294 295 295 296 295 295 295 294 294 293 285 295 298 295 284 280 291 291 294 296 294 293 293 292 289 286 285 287 290 286 284 283 289 292 294 295 292 295 295 296 297 296 296 297 297 297
294 294 294 294 294 294 294 294 294 295 296 295 295 295 294 294 294 288 287 291 294 292 285 283 285 293 295 293 292 290 291 289 287 286 284 285 287 288 286 282 288 291 293 294 295 295 292 293 292 295 296 296 297 297
292 293 294 294 294 294 294 294 294 295 295 295 295 295 295 295 294 290 295 297 297 290 287 282 284 288 293 288 286 291 287 286 285 286 288 287 289 288 283 288 291 292 292 292 293 294 293 294 295 294 295 295 294 294
290 291 292 292 294 294 294 294 294 294 295 295 295 295 294 292 289 290 297 298 300 290 284 284 281 281 292 289 290 289 290 283 290 284 286 287 285 282 287 289 290 291 290 291 292 292 292 291 291 292 292 292 292 293
290 290 291 291 292 293 294 294 294 294 295 295 293 289 284 292 294 296 293 289 286 286 285 282 287 284 290 289 287 287 288 284 281 286 289 284 283 288 290 291 292 292 292 292 289 288 289 288 289 290 290 291 291 292
290 291 291 291 291 292 293 294 294 294 295 292 289 287 293 296 292 289 284 283 285 282 285 286 286 284 292 285 285 288 284 285 279 283 283 282 282 287 291 291 291 291 291 291 290 290 290 289 288 287 288 289 290 291
289 290 291 291 291 291 292 294 294 293 292 291 291 293 291 287 285 281 280 283 282 281 288 286 288 290 291 292 286 286 282 283 277 287 282 279 283 287 288 288 289 290 290 289 289 288 288 288 287 286 286 287 288 289
289 289 289 291 290 291 291 293 294 293 294 292 288 284 283 283 277 277 275 279 281 286 289 289 286 289 290 290 286 284 280 279 287 281 279 282 284 286 287 287 287 288 287 286 286 287 287 287 287 287 285 286 286 286
289 289 289 289 290 291 291 292 293 292 289 285 281 277 279 278 280 281 282 284 288 288 288 289 287 286 288 285 284 279 283 284 278 276 277 282 284 285 285 286 285 284 285 285 285 286 286 285 284 285 285 285 284 285
289 289 289 290 291 292 293 293 292 291 287 283 282 276 279 284 287 288 289 288 289 291 289 287 287 287 284 282 283 282 279 277 279 278 281 284 285 285 284 285 284 284 284 284 285 284 284 283 284 284 285 285 285 285
289 288 288 290 291 291 291 292 292 291 287 283 282 280 284 284 285 287 287 287 290 289 289 287 283 281 280 281 279 278 277 276 279 282 284 285 284 284 285 285 285 286 285 285 285 285 284 284 284 284 285 284 284 284
288 286 289 289 290 291 291 289 289 286 282 280 281 285 285 285 285 287 288 288 291 287 282 283 279 279 284 279 278 282 279 279 281 283 284 284 284 285 286 285 284 286 285 285 285 285 285 285 285 285 283 284 285 285
285 287 289 288 289 288 290 289 286 283 279 281 280 284 287 288 287 287 289 290 288 286 285 281 285 280 278 277 279 281 282 283 284 283 283 284 285 285 285 284 285 286 286 285 285 285 285 284 284 284 284 284 285 285
287 288 287 287 287 284 283 285 286 279 280 284 285 287 287 288 290 290 290 290 290 289 286 284 280 279 281 283 282 282 281 281 280 281 283 286 285 284 284 285 285 285 286 286 285 284 285 285 284 284 284 285 284 284
287 288 288 287 287 282 281 282 288 282 279 283 286 285 286 286 288 289 288 287 286 284 281 279 280 282 281 280 281 280 280 280 280 279 281 283 283 282 283 285 285 285 285 286 286 285 285 285 284 285 284 284 283 283
285 286 287 287 285 283 283 283 282 283 283 282 285 285 284 286 284 283 283 286 282 281 280 284 282 281 281 280 281 281 280 279 278 278 278 278 281 282 284 286 286 285 284 285 285 285 284 283 283 284 284 284 284 284
284 286 285 285 282 283 282 284 282 284 282 282 283 284 282 281 282 283 285 281 280 283 283 282 281 281 280 279 279 279 278 278 280 280 280 279 278 279 282 284 285 284 284 284 285 284 284 284 284 284 284 284 284 284
285 284 282 281 278 279 278 285 280 281 277 278 281 279 279 281 283 285 279 281 281 281 281 280 279 278 279 278 278 278 278 277 278 279 277 277 279 281 281 284 283 281 281 282 285 285 284 283 284 284 285 285 285 284
285 280 277 276 277 275 281 278 281 279 279 278 277 276 278 280 281 279 276 280 279 279 278 277 278 278 278 277 278 277 277 278 279 278 277 276 276 277 280 282 280 278 278 280 282 282 285 284 284 283 284 284 284 283
274 274 276 273 279 276 275 275 276 276 274 276 276 276 277 280 276 276 276 278 277 277 278 278 279 280 279 278 278 276 277 277 277 276 275 276 275 276 277 278 279 276 276 276 276 278 280 284 285 284 283 283 283 283
270 274 273 274 276 275 275 273 274 274 275 275 276 278 279 277 274 273 276 277 277 278 277 278 278 277 277 278 277 276 276 277 278 276 275 275 274 273 272 272 272 273 274 274 274 275 276 279 281 284 283 282 283 284
270 272 276 281 279 278 277 278 278 277 275 274 276 276 275 272 272 273 277 278 278 278 279 279 279 278 277 276 276 277 277 277 276 276 277 276 275 274 272 271 270 272 274 274 274 275 275 276 278 280 284 284 284 284
275 276 273 277 277 278 275 275 274 273 275 278 277 273 272 273 272 275 277 278 278 278 277 277 277 277 276 275 276 276 276 277 277 277 278 277 276 274 273 273 273 273 274 275 275 275 276 276 276 278 281 284 284 284
275 279 279 274 276 276 276 275 275 277 277 278 275 274 272 274 276 276 276 277 278 276 274 274 274 275 275 274 274 274 274 273 272 270 270 271 271 271 273 272 272 273 273 274 274 276 276 276 277 278 280 283 284 284
276 280 276 274 273 273 276 278 277 277 277 277 276 274 273 273 275 279 277 276 275 275 276 276 275 275 273 274 271 271 271 270 269 269 268 267 268 270 271 271 271 272 273 273 273 275 276 276 278 282 282 284 284 283
279 278 276 275 274 275 275 276 277 276 276 275 277 275 272 271 274 277 277 278 277 275 274 273 273 273 272 272 273 271 269 269 268 268 268 269 270 270 269 270 271 271 272 271 273 274 273 273 273 274 277 279 283 283
277 275 274 271 271 273 275 275 274 274 273 273 272 273 272 272 269 272 276 276 274 273 274 274 272 272 272 271 270 269 268 270 269 268 266 267 267 267 267 269 268 269 270 271 272 273 272 271 270 270 271 271 278 282
276 276 275 272 270 271 273 273 272 271 273 272 271 272 273 273 270 272 275 277 276 276 274 275 273 272 271 272 271 270 270 268 265 265 265 264 263 263 266 266 265 266 268 270 270 271 270 269 268 267 267 267 269 280
Wind_Speed
15 15 15 13 12 10 9 13 14 14 14 13 14 14 12 14 14 8 8 9 7 7 14 22 25 22 17 14 14 11 9 8 6 8 6 8 8 11 15 20 19 13 5 6 6 7 16 5 3 6 6 10 9 8
14 12 11 12 10 10 11 14 12 15 13 12 15 13 12 13 11 10 10 10 10 9 10 20 22 22 22 18 13 9 10 16 4 5 6 3 5 5 9 5 10 12 10 6 9 7 15 15 12 12 13 13 11 10
12 11 12 9 10 11 13 12 13 14 11 12 13 11 11 10 13 14 10 9 8 7 12 16 17 22 22 23 18 10 9 14 15 13 8 5 7 7 8 9 13 13 10 9 9 19 22 17 17 13 14 14 17 14
11 11 12 12 10 12 14 11 12 13 12 13 13 11 11 14 16 13 9 8 6 4 7 11 12 17 16 13 17 17 23 13 13 3 4 3 5 7 9 13 14 11 15 14 15 19 18 20 18 15 20 17 19 16
11 11 11 11 10 10 11 12 14 12 13 13 14 13 13 12 14 11 9 9 9 7 6 9 19 28 22 20 20 16 14 14 7 4 3 5 7 8 10 12 15 12 16 11 12 15 13 13 15 18 15 12 18 21
9 10 10 11 11 11 13 13 12 12 12 13 9 13 12 13 13 4 4 5 10 7 5 6 8 15 14 9 5 8 8 6 3 3 3 5 14 8 6 9 14 15 16 15 14 15 16 16 15 18 17 16 17 17
14 12 11 11 12 12 12 11 11 11 14 11 13 14 14 13 8 5 5 3 4 4 3 6 6 1 6 5 2 3 4 2 2 2 6 9 12 9 5 14 16 17 19 17 13 12 12 15 13 15 16 19 20 21
13 15 16 14 13 13 13 11 11 12 13 13 15 14 15 15 15 11 12 21 14 6 4 6 6 4 8 4 3 5 4 3 5 5 6 9 7 4 7 13 17 17 10 11 11 13 15 15 17 18 19 18 21 21
13 15 14 13 16 15 13 12 12 13 13 16 16 17 12 7 5 6 7 7 5 5 5 4 5 7 6 5 4 4 5 5 6 7 7 5 6 9 9 12 6 10 9 11 14 15 18 20 21 21 21 21 23 23
15 14 14 14 15 15 15 13 13 14 16 16 10 2 3 2 1 7 4 4 5 5 5 7 9 10 6 5 3 3 4 4 4 7 4 4 10 17 18 16 3 6 11 14 15 15 16 19 19 21 23 21 22 23
15 15 15 15 14 15 15 16 12 13 16 4 4 3 0 4 4 4 5 6 7 6 7 8 14 13 10 10 6 2 3 4 4 3 4 4 2 6 10 10 11 11 13 14 14 16 18 18 19 21 22 22 22 23
15 16 17 15 15 14 14 14 12 8 4 7 7 10 6 4 4 5 5 5 7 7 6 8 5 5 3 4 3 5 4 2 6 1 3 4 5 9 11 11 11 12 13 16 17 18 18 19 19 20 20 20 21 21
15 16 17 17 15 15 15 13 14 10 11 6 4 4 4 6 8 8 7 6 5 4 0 2 1 2 3 4 3 3 4 6 1 2 3 5 5 7 9 10 13 14 15 15 17 17 18 20 20 18 19 18 21 20
15 16 18 18 19 17 15 13 7 6 5 4 5 7 7 7 7 8 10 9 0 4 6 3 2 2 3 4 4 4 5 4 4 4 2 5 9 10 10 9 10 14 13 14 14 15 16 16 17 17 12 13 13 12
16 16 19 21 6 10 11 10 7 5 3 4 5 7 9 9 8 7 6 7 5 4 4 3 4 5 4 4 4 5 4 5 4 3 3 6 9 9 10 10 10 10 11 12 12 12 12 13 13 11 10 10 10 9
14 15 12 5 12 14 10 6 7 3 4 5 8 9 8 9 7 6 7 8 6 1 1 2 4 4 7 4 6 7 4 1 4 3 4 6 9 9 11 9 10 10 10 11 11 10 11 11 11 11 9 10 10 10
11 7 9 10 9 15 10 3 4 6 7 7 7 7 10 10 10 8 6 6 2 3 3 4 6 8 2 4 4 3 4 3 2 4 5 7 7 10 10 9 10 11 11 10 10 10 10 9 9 8 11 12 10 10
10 10 11 12 13 10 5 7 5 6 10 9 11 9 9 9 9 8 7 6 4 4 5 6 5 5 4 5 1 3 4 2 2 3 5 6 7 8 8 9 10 9 11 8 8 9 8 10 10 8 10 11 9 10
11 11 13 14 10 3 5 5 7 6 9 9 10 9 9 8 7 7 7 4 3 0 3 4 7 7 6 4 5 4 3 3 4 5 5 5 6 8 9 9 8 9 10 8 5 6 5 7 7 7 7 7 7 8
13 15 17 17 12 4 7 6 5 6 6 6 8 9 10 9 7 5 4 4 5 3 5 5 6 2 3 5 4 4 3 3 5 5 5 6 7 10 10 9 6 8 7 8 4 5 5 5 6 7 7 7 6 7
13 11 11 4 6 10 7 5 6 6 6 9 9 9 8 6 6 5 5 5 4 5 7 2 4 5 5 3 2 2 3 4 4 4 6 7 7 8 7 7 7 4 5 5 6 5 6 6 5 5 6 6 6 5
9 13 10 9 6 8 9 9 6 3 5 8 9 7 6 6 7 7 4 5 4 3 2 2 3 4 3 4 3 3 4 5 6 3 5 8 6 7 7 6 6 5 6 6 6 6 5 4 5 4 4 4 6 6
14 11 9 6 7 8 7 9 12 14 8 6 8 11 7 5 2 5 3 4 2 2 3 3 5 3 3 3 2 3 3 5 4 3 5 6 7 6 7 6 7 7 7 8 8 5 4 4 4 4 3 3 4 4
12 5 7 7 11 7 4 8 6 7 5 12 12 11 7 3 5 4 4 3 4 6 4 5 4 5 4 3 3 4 3 4 3 4 6 6 6 7 7 6 6 7 8 8 8 9 4 3 3 3 4 4 4 4
8 10 7 9 7 7 8 5 10 11 8 11 12 7 3 4 4 4 5 4 6 5 5 4 4 3 2 5 4 5 2 3 4 3 5 6 7 6 6 6 6 8 9 8 9 10 10 7 2 1 2 3 4 5
10 8 9 7 7 8 7 7 8 11 11 10 5 3 3 3 4 4 2 4 5 6 5 4 3 3 3 4 3 4 4 4 5 3 4 5 6 6 7 8 7 7 9 8 9 11 11 10 10 4 2 2 2 3
7 9 9 7 8 6 4 5 2 5 9 7 4 5 4 4 4 4 3 4 5 5 5 3 2 3 5 5 4 3 2 2 3 3 1 3 4 5 6 7 9 8 9 10 10 11 11 11 11 11 1 1 1 1
9 6 12 11 8 6 4 3 4 4 4 2 2 5 4 1 4 3 3 6 6 6 5 4 5 5 6 5 4 3 3 4 3 5 5 3 5 6 6 6 6 9 8 8 10 9 9 10 10 10 10 2 3 2
7 10 9 9 6 3 3 4 4 2 2 2 2 3 3 4 2 3 6 6 6 6 5 5 5 5 5 5 5 5 5 6 5 3 3 4 5 6 7 7 7 7 8 8 13 12 12 12 11 9 9 7 3 4
11 6 4 5 5 5 3 3 3 3 3 4 3 3 4 3 1 1 6 5 5 5 5 4 4 3 3 3 5 5 5 6 6 5 4 4 5 6 6 7 7 8 8 9 10 11 13 12 12 6 5 4 5 5
5 3 4 4 4 4 4 4 4 4 2 1 1 1 5 4 2 1 3 3 6 6 5 4 4 4 3 2 1 3 5 5 4 6 5 4 5 6 7 7 7 7 8 9 9 9 12 10 10 11 11 10 8 6
4 5 5 4 4 4 5 5 5 3 4 4 2 3 4 5 5 5 2 4 5 5 5 6 5 6 6 5 5 5 6 4 5 5 6 5 6 7 7 7 7 7 8 8 8 8 11 13 10 11 11 14 7 9
3 4 6 4 5 6 4 4 4 4 3 3 4 6 6 2 3 3 3 3 2 5 6 7 8 7 6 5 6 4 6 5 6 5 4 5 5 6 6 6 7 8 9 7 8 9 12 14 12 14 14 15 18 3
Wind_Direction
294 294 293 288 289 285 277 285 284 283 273 270 280 247 251 263 268 257 271 277 258 263 271 268 271 274 279 276 278 289 304 238 229 223 237 227 254 250 256 258 259 253 226 217 211 223 254 141 278 220 310 289 285 283
293 298 295 294 286 283 287 286 285 295 269 270 281 245 252 269 246 255 272 272 260 246 277 293 285 279 276 279 278 271 262 276 313 333 307 330 288 327 300 276 282 262 212 199 212 226 260 293 310 313 310 305 310 320
291 301 301 300 297 297 295 282 290 292 278 274 279 248 264 266 262 263 273 279 272 274 274 253 255 259 245 249 251 249 252 253 249 245 273 234 255 290 288 293 297 296 277 226 262 254 270 288 284 296 290 288 294 297
292 303 305 298 296 295 292 279 288 288 285 271 277 248 251 269 279 270 261 263 254 281 271 280 277 266 267 255 236 221 239 262 270 249 254 292 287 284 277 286 286 282 282 286 270 264 282 284 287 291 297 296 293 284
301 293 300 306 306 305 297 291 292 279 284 274 279 249 261 278 285 277 263 258 248 235 282 296 308 281 277 262 245 242 232 234 237 223 225 255 269 266 260 267 265 266 267 265 268 279 275 270 267 276 269 302 305 300
324 317 312 308 306 305 298 291 286 290 284 279 262 272 268 278 276 292 290 226 224 233 268 282 255 263 258 251 243 232 257 247 205 202 243 241 243 256 261 263 266 256 249 266 281 293 295 301 307 304 296 285 281 276
337 318 309 309 307 305 303 300 296 282 296 275 282 272 278 271 257 221 248 71 133 140 254 274 251 56 194 141 203 221 218 201 207 228 221 243 251 249 247 255 266 273 274 275 280 283 273 286 304 311 300 293 289 282
332 346 338 313 308 310 310 299 300 288 297 282 290 281 274 270 268 253 245 266 256 253 224 252 263 178 174 183 226 175 184 178 211 229 239 247 257 207 248 259 254 258 315 343 326 327 315 306 301 297 298 300 293 283
324 325 322 333 338 314 309 305 300 288 298 288 286 290 279 237 226 246 229 226 195 200 259 236 262 281 169 211 206 193 208 219 203 220 230 231 223 226 241 252 7 324 341 340 324 316 317 317 314 309 302 295 293 291
317 320 317 315 319 324 324 301 298 297 302 290 290 196 236 229 282 196 182 217 202 207 226 252 257 253 218 206 230 234 184 233 244 214 200 228 255 261 267 287 136 341 347 338 327 317 317 307 301 295 291 288 281 278
319 321 316 316 310 317 315 322 295 302 288 229 217 230 346 220 256 226 236 212 199 221 212 236 232 252 246 239 246 217 250 232 256 218 208 225 233 18 22 24 11 356 347 340 322 312 308 309 305 296 291 285 280 278
313 316 318 318 317 314 308 323 309 287 285 323 306 288 251 252 215 240 228 222 221 239 191 217 242 244 192 203 194 204 239 250 254 97 241 260 66 19 13 1 348 347 342 332 324 318 311 304 301 295 291 288 285 283
309 312 311 313 308 304 301 308 306 279 279 255 195 235 208 211 235 227 206 226 225 273 239 201 221 291 185 199 232 233 244 238 66 213 239 58 50 14 3 344 341 341 332 321 317 316 310 313 309 301 299 293 288 279
303 311 310 306 309 297 284 287 268 273 255 242 225 230 228 206 232 231 243 271 51 284 299 291 259 233 210 205 216 237 233 270 244 229 138 42 20 3 355 346 333 332 330 326 318 314 317 318 316 310 312 310 299 302
297 308 312 304 329 348 285 234 218 247 261 245 237 242 233 244 260 288 299 293 304 338 350 335 268 232 232 234 226 233 232 238 232 32 39 356 10 352 345 342 341 335 333 329 324 322 324 323 318 321 326 323 332 332
305 300 297 335 350 330 344 303 254 237 236 238 237 238 260 278 273 275 286 286 299 28 36 248 270 249 223 225 209 216 242 268 71 3 360 350 357 345 348 350 340 342 332 330 329 331 330 332 332 330 326 344 346 350
300 274 287 319 346 325 277 268 250 215 220 228 237 236 249 268 279 285 290 283 271 194 233 241 229 229 225 231 228 29 34 71 352 351 341 346 341 342 352 346 345 335 330 334 340 342 335 329 330 342 356 353 351 357
267 276 297 338 334 317 260 203 232 235 229 240 256 257 262 262 264 263 250 259 229 225 247 258 309 261 262 261 14 89 80 16 0 355 325 320 333 355 352 340 333 322 328 332 342 335 342 352 356 355 354 352 358 6
286 295 307 309 307 304 275 229 219 248 236 245 255 259 258 262 251 252 263 284 256 280 300 248 248 252 281 51 72 89 54 17 330 323 304 320 4 358 336 328 318 329 329 332 337 348 343 351 351 357 352 354 10 16
290 287 276 272 264 233 237 238 217 244 246 255 257 252 253 255 263 264 238 241 225 208 221 230 258 59 55 65 47 41 25 340 316 323 325 350 347 344 320 314 327 326 334 331 339 355 354 7 10 2 7 10 17 23
272 268 283 328 252 216 270 250 227 246 247 251 254 257 259 251 205 190 207 197 218 229 237 263 109 110 85 72 47 344 40 5 336 324 319 318 337 304 312 321 325 336 335 334 343 360 18 12 355 357 4 11 11 15
275 277 283 268 243 219 227 227 252 240 259 260 276 269 254 236 223 214 190 192 232 236 47 73 103 128 154 150 108 43 25 322 304 325 352 331 327 325 318 332 328 5 349 357 349 357 16 6 354 4 13 21 24 22
263 259 253 236 260 231 238 215 233 234 243 264 264 254 242 229 154 147 194 213 106 79 112 108 106 74 76 112 162 119 42 327 330 25 4 337 319 328 337 337 22 14 352 350 331 356 16 3 354 354 352 2 32 35
244 231 218 231 210 237 212 228 215 218 238 236 247 255 247 162 156 198 247 167 104 136 163 135 187 155 168 204 144 83 22 327 335 57 21 347 346 341 340 4 40 26 358 334 350 347 357 7 357 360 3 22 40 56
212 200 223 235 237 212 220 212 224 228 229 236 235 233 166 175 186 214 232 132 152 165 141 169 216 216 179 121 125 116 93 3 328 58 40 5 354 350 2 3 30 42 5 355 354 343 342 334 347 6 34 24 34 75
203 225 215 224 214 210 209 205 212 218 238 243 248 95 198 194 214 230 90 126 137 132 142 182 184 169 119 53 66 70 50 350 315 80 62 30 21 6 2 3 359 10 5 348 342 342 337 336 338 344 99 91 43 77
235 215 211 235 248 213 223 221 280 248 238 227 180 169 181 220 226 85 104 82 108 97 93 58 14 57 105 108 86 59 41 14 14 17 45 89 71 41 14 1 353 350 331 343 336 336 334 331 328 331 305 120 53 61
229 251 208 205 215 211 203 245 203 229 243 115 160 185 214 310 69 60 91 100 106 106 95 76 50 59 72 74 59 29 18 336 215 224 223 184 107 69 20 2 351 335 335 332 333 329 330 328 318 311 314 216 145 120
254 222 194 187 187 176 222 214 229 93 22 238 247 131 103 61 37 122 118 120 117 131 135 133 120 125 119 101 65 41 29 9 358 27 6 9 13 13 2 356 342 345 337 336 331 330 333 329 309 289 287 303 150 143
240 188 139 148 155 194 93 3 77 86 33 54 97 117 104 103 39 52 129 145 165 156 133 128 138 158 143 139 102 87 58 43 28 19 28 25 359 344 352 349 340 344 339 340 329 331 345 345 335 335 266 217 163 165
160 147 136 153 122 69 96 92 108 112 90 87 326 151 109 117 161 152 177 156 108 109 124 136 122 119 141 181 108 136 126 92 59 57 17 344 350 4 349 333 347 337 342 333 331 344 353 352 351 346 348 332 179 178
166 192 140 125 118 131 174 177 170 164 147 164 134 104 147 173 158 171 141 126 145 178 152 149 152 108 81 85 87 74 56 80 58 39 25 7 360 358 335 351 347 336 334 330 340 355 2 4 360 358 355 348 304 176
94 97 99 110 139 173 165 179 166 165 189 164 154 184 197 213 130 106 149 193 228 186 146 104 97 107 109 90 103 123 107 102 102 78 60 41 11 352 344 5 346 336 325 356 357 7 10 13 14 10 9 6 1 286